Weather History for Adak, AK

Change the Weather History Date:

Saturday, February 8, 2014

  Actual Average Record
Temperature  
Mean Temperature 35 °F -  
Max Temperature 37 °F 37 °F 43 °F (1951)
Min Temperature 33 °F 28 °F 11 °F (1964)
Degree Days  
Heating Degree Days 30    
Moisture  
Dew Point 27 °F    
Average Humidity 71    
Maximum Humidity 81    
Minimum Humidity 55    
Precipitation  
Precipitation 0.00 in - - ()
Sea Level Pressure  
Sea Level Pressure 30.27 in    
Wind  
Wind Speed 24 mph (NNE)    
Max Wind Speed 29 mph    
Max Gust Speed 36 mph    
Visibility 9 miles    
Events      
Averages and records for this station are not official NWS values.
T = Trace of Precipitation, MM = Missing Value Source: NWS Daily Summary

Daily Weather History Graph

Daily Weather History Graph

Search for Another Location

Airport:

Trip Planner

Search our weather history database for the weather conditions in past years. The results will help you decide how hot, cold, wet, or windy it might be!

Date:

Astronomy

Feb. 08, 2014 Rise Set
Actual Time 9:13 AM HAST 6:48 PM HAST
Civil Twilight 8:38 AM HAST 7:24 PM HAST
Nautical Twilight 7:58 AM HAST 8:04 PM HAST
Astronomical Twilight 7:19 AM HAST 8:43 PM HAST
Moon 1:41 PM HAST (2/8) 4:50 AM HAST (2/8)
Length of Visible Light 10h 46m
Length of Day
9h 34m
Waxing Gibbous, 70% of the Moon is Illuminated
Feb 8
Waxing Gibbous
Feb 14
Full
Feb 22
Last Quarter
Feb 28
New
Mar 8
First Quarter

Hourly Weather History & Observations

Time (HAST) Temp. Windchill Dew Point Humidity Pressure Visibility Wind Dir Wind Speed Gust Speed Precip Events Conditions
12:16 AM 33.8 °F 20.5 °F 28.4 °F 81% 30.39 in 10.0 mi North 27.6 mph 34.5 mph N/A   Partly Cloudy
12:36 AM 33.8 °F 20.5 °F 28.4 °F 81% 30.39 in 10.0 mi North 27.6 mph 34.5 mph N/A   Mostly Cloudy
12:56 AM 33.8 °F 20.3 °F 28.4 °F 81% 30.38 in 10.0 mi NNE 28.8 mph 34.5 mph N/A   Mostly Cloudy
1:16 AM 33.8 °F 20.8 °F 28.4 °F 81% 30.37 in 10.0 mi North 26.5 mph 35.7 mph N/A   Overcast
1:36 AM 33.8 °F 20.5 °F 28.4 °F 81% 30.38 in 10.0 mi North 27.6 mph 33.4 mph N/A   Mostly Cloudy
1:56 AM 33.8 °F 21.0 °F 26.6 °F 75% 30.38 in 10.0 mi North 25.3 mph 33.4 mph N/A   Mostly Cloudy
2:16 AM 33.8 °F 21.3 °F 28.4 °F 81% 30.38 in 10.0 mi NNE 24.2 mph 32.2 mph N/A   Mostly Cloudy
2:36 AM 33.8 °F 21.3 °F 26.6 °F 75% 30.37 in 10.0 mi North 24.2 mph 31.1 mph N/A   Mostly Cloudy
2:56 AM 33.8 °F 21.0 °F 26.6 °F 75% 30.36 in 10.0 mi North 25.3 mph 31.1 mph N/A   Overcast
3:16 AM 33.8 °F 21.0 °F 28.4 °F 81% 30.36 in 10.0 mi North 25.3 mph 29.9 mph N/A   Overcast
3:36 AM 33.8 °F 21.6 °F 26.6 °F 75% 30.35 in 10.0 mi North 23.0 mph - N/A   Overcast
3:56 AM 33.8 °F 21.9 °F 26.6 °F 75% 30.34 in 10.0 mi North 21.9 mph 32.2 mph N/A   Overcast
4:16 AM 33.8 °F 22.2 °F 26.6 °F 75% 30.33 in 10.0 mi North 20.7 mph - N/A   Mostly Cloudy
4:36 AM 33.8 °F 21.6 °F 28.4 °F 81% 30.34 in 10.0 mi North 23.0 mph 32.2 mph N/A   Mostly Cloudy
4:56 AM 35.6 °F 23.7 °F 26.6 °F 70% 30.33 in 10.0 mi North 24.2 mph 31.1 mph N/A   Overcast
5:16 AM 35.6 °F 23.7 °F 26.6 °F 70% 30.33 in 10.0 mi North 24.2 mph 28.8 mph N/A   Overcast
5:36 AM 35.6 °F 23.4 °F 28.4 °F 75% 30.33 in 10.0 mi NNE 25.3 mph 33.4 mph N/A   Overcast
5:56 AM 35.6 °F 23.7 °F 26.6 °F 70% 30.32 in 10.0 mi North 24.2 mph 29.9 mph N/A   Overcast
6:16 AM 35.6 °F 23.7 °F 26.6 °F 70% 30.31 in 10.0 mi North 24.2 mph 31.1 mph N/A   Overcast
6:36 AM 35.6 °F 23.7 °F 26.6 °F 70% 30.31 in 10.0 mi NNE 24.2 mph 29.9 mph N/A   Overcast
6:56 AM 35.6 °F 24.0 °F 26.6 °F 70% 30.31 in 10.0 mi North 23.0 mph 31.1 mph N/A   Overcast
7:16 AM 35.6 °F 23.4 °F 26.6 °F 70% 30.30 in 10.0 mi North 25.3 mph 31.1 mph N/A   Overcast
7:36 AM 35.6 °F 23.4 °F 26.6 °F 70% 30.30 in 10.0 mi North 25.3 mph 31.1 mph N/A   Overcast
8:16 AM 35.6 °F 23.7 °F 26.6 °F 70% 30.29 in 10.0 mi North 24.2 mph 33.4 mph N/A   Overcast
8:36 AM 35.6 °F 23.7 °F 26.6 °F 70% 30.28 in 10.0 mi North 24.2 mph 34.5 mph N/A   Overcast
8:56 AM 35.6 °F 23.7 °F 26.6 °F 70% 30.29 in 10.0 mi NNE 24.2 mph 34.5 mph N/A   Mostly Cloudy
9:16 AM 35.6 °F 24.0 °F 26.6 °F 70% 30.28 in 9.0 mi NNE 23.0 mph 33.4 mph N/A   Overcast
9:36 AM 35.6 °F 23.2 °F 26.6 °F 70% 30.28 in 9.0 mi North 26.5 mph 32.2 mph N/A   Overcast
9:56 AM 35.6 °F 23.4 °F 26.6 °F 70% 30.28 in 9.0 mi North 25.3 mph 32.2 mph N/A   Overcast
10:16 AM 35.6 °F 23.7 °F 26.6 °F 70% 30.28 in 9.0 mi NNE 24.2 mph 31.1 mph N/A   Overcast
10:36 AM 35.6 °F 23.2 °F 26.6 °F 70% 30.27 in 9.0 mi NNE 26.5 mph 29.9 mph N/A   Overcast
10:56 AM 35.6 °F 24.2 °F 26.6 °F 70% 30.27 in 9.0 mi NNE 21.9 mph 31.1 mph N/A   Overcast
11:36 AM 35.6 °F 23.7 °F 26.6 °F 70% 30.27 in 9.0 mi NNE 24.2 mph 33.4 mph N/A   Overcast
11:56 AM 35.6 °F 24.2 °F 26.6 °F 70% 30.27 in 9.0 mi NNE 21.9 mph 27.6 mph N/A   Overcast
12:36 PM 35.6 °F 25.2 °F 26.6 °F 70% 30.26 in 9.0 mi NNE 18.4 mph 31.1 mph N/A   Overcast
12:56 PM 35.6 °F 24.5 °F 26.6 °F 70% 30.26 in 9.0 mi NNE 20.7 mph 25.3 mph N/A   Overcast
1:16 PM 35.6 °F 23.7 °F 26.6 °F 70% 30.25 in 9.0 mi NNE 24.2 mph 32.2 mph N/A   Overcast
1:36 PM 37.4 °F 27.2 °F 26.6 °F 65% 30.25 in 10.0 mi NNE 19.6 mph 27.6 mph N/A   Overcast
1:56 PM 37.4 °F 26.1 °F 26.6 °F 65% 30.22 in 9.0 mi North 24.2 mph 32.2 mph N/A   Overcast
2:16 PM 35.6 °F 24.2 °F 26.6 °F 70% 30.23 in 9.0 mi NNE 21.9 mph 32.2 mph N/A   Overcast
2:36 PM 35.6 °F 24.8 °F 26.6 °F 70% 30.23 in 9.0 mi NNE 19.6 mph 29.9 mph N/A   Overcast
2:56 PM 35.6 °F 25.2 °F 26.6 °F 70% 30.23 in 9.0 mi NNE 18.4 mph - N/A   Overcast
3:16 PM 35.6 °F 24.0 °F 26.6 °F 70% 30.22 in 9.0 mi North 23.0 mph 27.6 mph N/A   Overcast
3:36 PM 35.6 °F 24.8 °F 26.6 °F 70% 30.21 in 10.0 mi NNE 19.6 mph 25.3 mph N/A   Overcast
3:56 PM 35.6 °F 24.8 °F 26.6 °F 70% 30.21 in 9.0 mi NNE 19.6 mph - N/A   Overcast
4:16 PM 35.6 °F 24.0 °F 26.6 °F 70% 30.21 in 9.0 mi NNE 23.0 mph 27.6 mph N/A   Overcast
4:36 PM 35.6 °F 24.2 °F 26.6 °F 70% 30.21 in 9.0 mi NNE 21.9 mph 27.6 mph N/A   Overcast
4:56 PM 35.6 °F 23.7 °F 26.6 °F 70% 30.21 in 9.0 mi NNE 24.2 mph 28.8 mph N/A   Overcast
5:16 PM 35.6 °F 24.8 °F 26.6 °F 70% 30.21 in 9.0 mi NNE 19.6 mph 25.3 mph N/A   Overcast
5:36 PM 35.6 °F 24.2 °F 24.8 °F 65% 30.21 in 10.0 mi NNE 21.9 mph 28.8 mph N/A   Overcast
5:56 PM 35.6 °F 24.8 °F 26.6 °F 70% 30.21 in 9.0 mi NNE 19.6 mph 28.8 mph N/A   Overcast
6:16 PM 35.6 °F 25.5 °F 24.8 °F 65% 30.21 in 9.0 mi NNE 17.3 mph 25.3 mph N/A   Overcast
6:36 PM 35.6 °F 24.8 °F 24.8 °F 65% 30.21 in 9.0 mi NNE 19.6 mph 26.5 mph N/A   Overcast
6:56 PM 35.6 °F 24.8 °F 24.8 °F 65% 30.21 in 9.0 mi North 19.6 mph 26.5 mph N/A   Overcast
7:16 PM 35.6 °F 26.2 °F 24.8 °F 65% 30.21 in 10.0 mi NNE 15.0 mph 27.6 mph N/A   Overcast
7:36 PM 35.6 °F 25.2 °F 26.6 °F 70% 30.22 in 10.0 mi NNE 18.4 mph 24.2 mph N/A   Overcast
7:56 PM 35.6 °F 24.2 °F 26.6 °F 70% 30.21 in 10.0 mi North 21.9 mph 25.3 mph N/A   Overcast
8:16 PM 35.6 °F 24.2 °F 26.6 °F 70% 30.21 in 10.0 mi NNE 21.9 mph 31.1 mph N/A   Overcast
8:36 PM 35.6 °F 23.7 °F 26.6 °F 70% 30.21 in 10.0 mi NNE 24.2 mph 29.9 mph N/A   Overcast
8:56 PM 35.6 °F 23.4 °F 26.6 °F 70% 30.21 in 10.0 mi NNE 25.3 mph 32.2 mph N/A   Overcast
9:16 PM 35.6 °F 24.5 °F 26.6 °F 70% 30.22 in 9.0 mi NNE 20.7 mph 27.6 mph N/A   Overcast
9:36 PM 35.6 °F 24.0 °F 26.6 °F 70% 30.21 in 10.0 mi NNE 23.0 mph 32.2 mph N/A   Overcast
9:56 PM 35.6 °F 24.2 °F 28.4 °F 75% 30.22 in 10.0 mi NNE 21.9 mph 29.9 mph N/A   Overcast
10:16 PM 35.6 °F 25.5 °F 28.4 °F 75% 30.23 in 10.0 mi NE 17.3 mph 23.0 mph N/A   Overcast
10:36 PM 35.6 °F 26.2 °F 28.4 °F 75% 30.25 in 8.0 mi NE 15.0 mph 23.0 mph N/A   Overcast
10:56 PM 35.6 °F 27.5 °F 28.4 °F 75% 30.26 in 7.0 mi NE 11.5 mph 19.6 mph N/A   Overcast
11:16 PM 35.6 °F 24.8 °F 28.4 °F 75% 30.24 in 7.0 mi NNE 19.6 mph - N/A   Overcast
11:36 PM 35.6 °F 22.7 °F 28.4 °F 75% 30.22 in 8.0 mi NNE 28.8 mph 34.5 mph N/A   Overcast
11:56 PM 35.6 °F 23.4 °F 28.4 °F 75% 30.21 in 5.0 mi NNE 25.3 mph 32.2 mph N/A   Overcast